Regional Weather Roundup
Issued by NWS

Home | Current Version | Previous Version | Graphics & Text | Print | Product List | Glossary On
Versions: 1 2 3 4 5 6 7 8 9 10 11 12 13 14 15 16 17 18 19 20 21 22 23 24 25 26 27 28 29 30 31 32 33 34 35 36 37 38 39 40 41 42 43 44 45 46 47 48 49 50
000
ASUS43 KDTX 270310
RWRMI
MICHIGAN HOURLY REGIONAL WEATHER ROUNDUP
NATIONAL WEATHER SERVICE DETROIT/PONTIAC MI
1000 PM EST WED NOV 26 2014

NOTE: "FAIR" INDICATES FEW OR NO CLOUDS BELOW 12,000 FEET WITH NO
SIGNIFICANT WEATHER AND/OR OBSTRUCTION TO VISIBILITY.

MIZ047>049-052>055-059>063-066>070-074>076-081>083-270400-
SOUTHEAST LOWER MICHIGAN

CITY           SKY/WX    TMP DP  RH WIND       PRES   REMARKS
ADRIAN         CLOUDY    30  23  75 N8        30.09R
ALMA           CLOUDY    28  24  82 NW3       30.12S
ANN ARBOR      CLOUDY    31  23  72 N8        30.08R
BAD AXE        CLOUDY    30  28  93 NW5       30.09S
DETROIT CITY   CLOUDY    34  23  64 N6        30.09R
DETROIT        CLOUDY    32  24  72 N7        30.09R
FLINT          CLOUDY    31  23  72 N5        30.10S
GROSSE ILE     CLOUDY    34  25  69 N5        30.06S
HILLSDALE      CLOUDY    29  26  88 N5        30.07S
HOWELL         CLOUDY    28  24  85 N3        30.08S

CITY           SKY/WX    TMP DP  RH WIND       PRES   REMARKS
JACKSON        CLOUDY    29  23  78 N5        30.09R
LAMBERTVILLE   CLOUDY    32  28  86 NW3       30.08R
LANSING        CLOUDY    29  22  75 N8        30.11R
LAPEER         NOT AVBL
MASON          CLOUDY    29  23  78 N5        30.10R
MONROE         CLOUDY    32  27  80 CALM      30.06S
MT. CLEMENS    CLOUDY    31  26  81 N10       30.07R
PONTIAC        FLURRIES  29  22  75 N5        30.07R
PORT HOPE        N/A     32  27  81 NW7       30.07F
PORT HURON     CLOUDY    30  25  80 NW5       30.08S
TRI CITIES     CLOUDY    30  23  75 NW3       30.12S
YPSILANTI      CLOUDY    35  24  64 N8        30.09R
$$
MIZ043>046-050>051-056>058-064>065-071>073-077>080-270400-
SOUTHWEST LOWER MICHIGAN

CITY           SKY/WX    TMP DP  RH WIND       PRES   REMARKS
BATTLE CREEK   CLOUDY    29  21  72 N3        30.11R
BENTON HARBOR  CLOUDY    26  22  84 CALM      30.14R
BIG RAPIDS     CLOUDY    28  26  94 NW3       30.12R
COLDWATER      CLOUDY    29  26  86 N5        30.09S
HOLLAND        CLOUDY    31  22  69 CALM      30.14R
GRAND RAPIDS   CLOUDY    29  21  72 NW5       30.13R
KALAMAZOO      CLOUDY    29  21  72 E3        30.11S
MARSHALL       CLOUDY    28  22  81 CALM      30.09S
MUSKEGON       CLOUDY    30  22  72 E5        30.14R
$$
MIZ016>042-270400-
NORTHERN LOWER MICHIGAN

CITY           SKY/WX    TMP DP  RH WIND       PRES   REMARKS
ALPENA         MOCLDY    25  22  88 NW7       30.10F
BEAVER ISLAND  CLOUDY    28  24  82 CALM      30.13S
BELLAIRE       CLOUDY    27  25  94 CALM      30.13F
CADILLAC       CLOUDY    25  23  91 CALM      30.08S FOG
CHARLEVOIX     CLOUDY    26  25  93 CALM      30.15S
FRANKFORT      CLOUDY    28  25  87 CALM      30.14S
GAYLORD        CLOUDY    23  20  88 W5        30.08S
GRAYLING       CLOUDY    25  22  88 CALM      30.09F
HARBOR SPRINGS CLOUDY    26  24  89 CALM      30.12S
HOUGHTON LAKE  CLOUDY    24  20  84 NW3       30.09S
MANISTEE       CLOUDY    28  25  86 CALM      30.14S
OSCODA         CLOUDY    26  24  91 NW3       30.09S
PELLSTON       CLOUDY    25  23  92 W6        30.12S
TRAVERSE CITY  CLOUDY    28  24  85 CALM      30.12S
$$
MIZ007>008-015-270400-
EASTERN UPPER MICHIGAN

CITY           SKY/WX    TMP DP  RH WIND       PRES   REMARKS
KINROSS        CLOUDY    25  25 100 E3        30.11F
MACKINAC ISLAN CLOUDY    28  24  86 N3        30.11S
NEWBERRY       CLOUDY    19  19  98 W5        30.12S
S. S. MARIE    FLURRIES  26  22  84 E3        30.15R
$$
MIZ004>006-011>014-085-270400-
CENTRAL UPPER MICHIGAN

CITY           SKY/WX    TMP DP  RH WIND       PRES   REMARKS
MANISTIQUE     CLOUDY    19  17  94 NW3       30.13S
ESCANABA       MOCLDY    19  16  86 W5        30.14R
MENOMINEE      CLOUDY    21  18  86 CALM      30.15S
SAWYER-GWINN   CLOUDY    25  21  86 N15G21    30.11S
$$
MIZ001>003-009>011-084-270400-
WESTERN UPPER MICHIGAN

CITY           SKY/WX    TMP DP  RH WIND       PRES   REMARKS
IRON MOUNTAIN  CLOUDY    23  19  85 NW13      30.12S
HOUGHTON       LGT SNOW  16  10  77 N14       30.19S
COPPER HARBOR    N/A     21  16  81 NE22G31   30.22R
IRONWOOD       CLOUDY    18  16  93 N13       30.20R VSB 3/4
$$

ABBREVIATIONS USED IN REMARKS
   TC - TEMPERATURE IN CELSIUS
  WCI - WIND CHILL INDEX
   HX - HEAT INDEX
  VSB - VISIBILITY



USA.gov is the U.S. government's official web portal to all federal, state and local government web resources and services.